Anderson, SC

11:18 PM EDT on October 17, 2017 (GMT -0400)
Anderson Regional

Weather History for KAND - December, 2013

Change the Weather History Date:

Saturday, December 14, 2013

  Actual Average Record
Temperature  
Mean Temperature 44 °F -  
Max Temperature 46 °F 55 °F 76 °F (1948)
Min Temperature 42 °F 35 °F 15 °F (2010)
Degree Days  
Heating Degree Days 21    
Moisture  
Dew Point 41 °F    
Average Humidity 89    
Maximum Humidity 100    
Minimum Humidity 53    
Precipitation  
Precipitation 1.17 in - - ()
Sea Level Pressure  
Sea Level Pressure 29.96 in    
Wind  
Wind Speed 6 mph (NE)    
Max Wind Speed 17 mph    
Max Gust Speed 25 mph    
Visibility 6 miles    
Events Rain    
Averages and records for this station are not official NWS values.
T = Trace of Precipitation, MM = Missing Value Source: NWS Daily Summary

Daily Weather History Graph

Daily Weather History Graph

Search for Another Location

Airport or City:

Trip Planner

Search our weather history database for the weather conditions in past years. The results will help you decide how hot, cold, wet, or windy it might be!

Date:

Astronomy

Dec. 14, 2013 Rise Set
Actual Time 7:29 AM EST 5:21 PM EST
Civil Twilight 7:01 AM EST 5:49 PM EST
Nautical Twilight 6:30 AM EST 6:21 PM EST
Astronomical Twilight 5:59 AM EST 6:51 PM EST
Moon 3:38 PM EST (12/14) 4:53 AM EST (12/14)
Length of Visible Light 10h 47m
Length of Day
9h 52m
Waxing Gibbous, 93% of the Moon is Illuminated
Dec 14
Waxing Gibbous
Dec 17
Full
Dec 25
Last Quarter
Jan 1
New
Jan 7
First Quarter

Hourly Weather History & Observations

Time (EST) Temp. Windchill Dew Point Humidity Pressure Visibility Wind Dir Wind Speed Gust Speed Precip Events Conditions
12:56 AM 44.1 °F 40.1 °F 30.0 °F 58% 30.21 in 10.0 mi ENE 6.9 mph - N/A   Clear
1:56 AM 45.0 °F 43.5 °F 28.9 °F 53% 30.20 in 10.0 mi NE 3.5 mph - N/A   Partly Cloudy
2:56 AM 43.0 °F - 30.0 °F 60% 30.20 in 10.0 mi Calm Calm - N/A   Clear
3:56 AM 42.1 °F 38.4 °F 30.0 °F 62% 30.18 in 10.0 mi NE 5.8 mph - N/A   Mostly Cloudy
4:38 AM 42.8 °F 40.1 °F 30.2 °F 61% 30.16 in 10.0 mi NE 4.6 mph - N/A   Overcast
4:56 AM 44.1 °F 41.5 °F 30.9 °F 60% 30.17 in 10.0 mi NE 4.6 mph - N/A   Overcast
5:56 AM 44.1 °F 40.1 °F 32.0 °F 63% 30.14 in 10.0 mi ENE 6.9 mph - 0.00 in Rain Light Rain
6:21 AM 44.6 °F 41.4 °F 33.8 °F 66% 30.14 in 10.0 mi ENE 5.8 mph - 0.00 in   Mostly Cloudy
6:56 AM 44.1 °F 39.5 °F 33.1 °F 65% 30.13 in 10.0 mi East 8.1 mph - 0.00 in   Overcast
7:56 AM 45.0 °F 41.2 °F 35.1 °F 68% 30.11 in 10.0 mi East 6.9 mph - N/A   Overcast
8:56 AM 46.9 °F - 39.0 °F 74% 30.06 in 10.0 mi East 9.2 mph - 0.00 in Rain Light Rain
9:56 AM 45.0 °F 40.6 °F 42.1 °F 90% 30.01 in 7.0 mi East 8.1 mph - 0.03 in Rain Rain
10:04 AM 44.6 °F 40.7 °F 42.8 °F 93% 30.01 in 5.0 mi ESE 6.9 mph - 0.02 in Rain Rain
10:44 AM 44.6 °F 41.4 °F 42.8 °F 93% 29.99 in 2.0 mi NE 5.8 mph - 0.13 in Rain Heavy Rain
10:52 AM 44.6 °F 40.2 °F 44.6 °F 100% 29.97 in 3.0 mi ENE 8.1 mph - 0.15 in Rain Rain
10:56 AM 45.0 °F 40.6 °F 44.1 °F 97% 29.97 in 3.0 mi NE 8.1 mph - 0.16 in Rain Rain
11:13 AM 44.6 °F 41.4 °F 44.6 °F 100% 29.96 in 2.0 mi North 5.8 mph - 0.08 in Rain Heavy Rain
11:16 AM 44.6 °F 40.7 °F 44.6 °F 100% 29.96 in 1.8 mi North 6.9 mph - 0.10 in Rain Rain
11:27 AM 44.6 °F 40.7 °F 44.6 °F 100% 29.95 in 1.5 mi North 6.9 mph - 0.17 in Rain Heavy Rain
11:45 AM 44.6 °F 40.2 °F 42.8 °F 93% 29.93 in 2.0 mi North 8.1 mph - 0.29 in Rain Heavy Rain
11:48 AM 44.6 °F 40.7 °F 42.8 °F 93% 29.92 in 1.8 mi North 6.9 mph - 0.31 in Rain Heavy Rain
11:56 AM 44.1 °F 40.1 °F 43.0 °F 96% 29.92 in 1.2 mi NE 6.9 mph - 0.37 in Rain Heavy Rain
12:11 PM 42.8 °F 38.0 °F 42.8 °F 100% 29.92 in 2.0 mi North 8.1 mph - 0.06 in Rain Heavy Rain
12:13 PM 42.8 °F 37.5 °F 42.8 °F 100% 29.92 in 2.0 mi North 9.2 mph - 0.07 in Rain Heavy Rain
12:19 PM 42.8 °F 36.6 °F 42.8 °F 100% 29.92 in 1.5 mi NNW 11.5 mph - 0.12 in Rain Heavy Rain
12:26 PM 42.8 °F 36.6 °F 42.8 °F 100% 29.92 in 1.2 mi North 11.5 mph - 0.19 in Rain Heavy Rain
12:51 PM 42.8 °F 35.1 °F 42.8 °F 100% 29.93 in 2.5 mi North 16.1 mph 25.3 mph 0.37 in Rain Heavy Rain
12:56 PM 43.0 °F 35.1 °F 42.1 °F 97% 29.96 in 2.5 mi NNW 17.3 mph 25.3 mph 0.44 in Rain Heavy Rain
1:05 PM 42.8 °F 36.6 °F 42.8 °F 100% 29.94 in 1.8 mi North 11.5 mph 23.0 mph 0.04 in Rain Heavy Rain
1:09 PM 42.8 °F 37.0 °F 42.8 °F 100% 29.93 in 3.0 mi NNE 10.4 mph 20.7 mph 0.06 in Rain Heavy Rain
1:20 PM 44.6 °F 38.8 °F 42.8 °F 93% 29.90 in 4.0 mi NNE 11.5 mph 17.3 mph 0.09 in Rain Rain
1:38 PM 44.6 °F 38.1 °F 42.8 °F 93% 29.90 in 2.5 mi NE 13.8 mph 17.3 mph 0.17 in Rain Rain
1:46 PM 44.6 °F 40.2 °F 44.6 °F 100% 29.90 in 8.0 mi ENE 8.1 mph - 0.17 in Rain Light Rain
1:56 PM 45.0 °F 40.6 °F 44.1 °F 97% 29.89 in 10.0 mi ENE 8.1 mph - 0.17 in Rain Light Rain
2:41 PM 46.4 °F 43.5 °F 44.6 °F 93% 29.87 in 10.0 mi ENE 5.8 mph - 0.00 in   Overcast
2:56 PM 46.0 °F 43.1 °F 45.0 °F 96% 29.87 in 10.0 mi East 5.8 mph - 0.00 in   Overcast
3:19 PM 46.4 °F 42.4 °F 44.6 °F 93% 29.86 in 10.0 mi ENE 8.1 mph - N/A   Overcast
3:38 PM 46.4 °F 43.5 °F 44.6 °F 93% 29.87 in 10.0 mi NE 5.8 mph - N/A   Overcast
3:56 PM 46.0 °F 41.9 °F 45.0 °F 96% 29.88 in 10.0 mi ENE 8.1 mph - N/A   Overcast
4:04 PM 46.4 °F 42.9 °F 44.6 °F 93% 29.87 in 10.0 mi ENE 6.9 mph - N/A   Overcast
4:56 PM 45.0 °F 40.6 °F 44.1 °F 97% 29.89 in 10.0 mi ENE 8.1 mph - N/A   Overcast
5:38 PM 44.6 °F 40.7 °F 42.8 °F 93% 29.88 in 10.0 mi ENE 6.9 mph - N/A   Overcast
5:56 PM 44.1 °F 40.1 °F 43.0 °F 96% 29.87 in 10.0 mi ENE 6.9 mph - N/A   Overcast
6:56 PM 44.1 °F 40.8 °F 42.1 °F 93% 29.88 in 10.0 mi NE 5.8 mph - N/A   Overcast
7:00 PM 44.6 °F 42.2 °F 42.8 °F 93% 29.87 in 10.0 mi NE 4.6 mph - N/A   Overcast
7:15 PM 44.6 °F 43.1 °F 42.8 °F 93% 29.86 in 10.0 mi ENE 3.5 mph - N/A   Overcast
7:56 PM 44.1 °F - 42.1 °F 93% 29.91 in 10.0 mi Calm Calm - N/A   Overcast
8:38 PM 44.6 °F 43.1 °F 42.8 °F 93% 29.88 in 4.0 mi NW 3.5 mph - N/A   Overcast
8:56 PM 44.1 °F - 43.0 °F 96% 29.86 in 5.0 mi Calm Calm - N/A   Overcast
9:45 PM 44.6 °F - 42.8 °F 93% 29.88 in 7.0 mi Calm Calm - N/A   Overcast
9:56 PM 44.1 °F - 43.0 °F 96% 29.86 in 7.0 mi Calm Calm - N/A   Overcast
10:56 PM 44.1 °F - 43.0 °F 96% 29.84 in 4.0 mi Calm Calm - N/A   Overcast
11:03 PM 44.6 °F - 44.6 °F 100% 29.85 in 5.0 mi Calm Calm - N/A   Overcast
11:12 PM 44.6 °F 43.1 °F 42.8 °F 93% 29.86 in 5.0 mi West 3.5 mph - 0.00 in Rain Light Rain
11:56 PM 44.1 °F 42.5 °F 43.0 °F 96% 29.83 in 3.0 mi SSE 3.5 mph - 0.00 in Rain Light Rain